Погода в Жажлеве

Россия / Ивановская область     57°27′18″N   42°24′41″E
темп.,
°C
ветер,
м/с
пор.,
м/с
влажн.,
%
обл.,
%
осадки,
мм/ч
давл.,
гПа
погр.,
м
28 сентября, вт
вт2800:00+5св4108998 0.0 1027619
03:00+3св3109526 0.0 1028375
06:00+2св289711 0.0 1030240
09:00+5всв368015 0.0 1032391
12:00+9св345942 0.0 1032869
15:00+10ссв354912 0.0 10321140
18:00+5ссв227138 0.0 103214
21:00+4ссв22795 0.0 103322
29 сентября, ср
ср2900:00+3ссв22845 0.0 103424
03:00+2с22905 0.0 103429
06:00+1с23945 0.0 103546
09:00+6ссв24705 0.0 1035311
12:00+10ссв236171 0.0 10341039
15:00+11с235963 0.0 10331147
18:00+8сз227779 0.0 103322
21:00+8сз227599 0.0 103332
30 сентября, чт
чт3000:00+8сз2383100 0.0 103373
03:00+7сз2388100 0.0 103381
06:00+8сз2392100 0.0 1033106
09:00+10ссз237871 0.0 1034336
12:00+11ссз1376100 0.0 1033400
15:00+13зсз347187 0.0 1033661
18:00+10зсз268680 0.0 1032169
21:00+8сз279627 0.0 1033156
1 октября, пт
пт100:00+7сз24965 0.0 103376
03:00+7сз24975 0.0 103378
06:00+6сз259777 0.0 103398
09:00+10ссз24815 0.0 1033277
12:00+14сз23645 0.0 1033722
15:00+15сз23615 0.0 1032937
18:00+11зсз228887 0.0 103243
21:00+10зсз2487100 0.0 1033114
2 октября, сб
сб200:00+10з2388100 0.0 103392
03:00+10з2386100 0.0 103396
06:00+8з249314 0.0 1033103
09:00+10з247322 0.0 1033309
12:00+14зюз34565 0.0 1033871
15:00+14зюз34535 0.0 10321046
18:00+9юз22765 0.0 103220
21:00+8юз23839 0.0 103345